Temp
4 3 3 3 3 4 4 4 4 4 4 4 4 4 4 4 4 4 4 4 5 5 6 9 11 12 13 13 12 11 11 11 11 12 11 11 12 13 14 15 13 12 12 12 11 11 11 17 16 15 15 15 15 14
4 3 3 3 3 4 4 4 4 4 4 4 4 4 4 4 4 4 4 4 4 4 6 6 7 9 9 12 13 12 13 12 12 11 10 11 11 12 13 13 16 14 14 14 13 13 16 17 15 17 14 13 13 13
3 3 3 3 3 3 4 4 4 4 4 4 4 4 4 4 4 4 3 4 4 4 6 7 10 11 11 11 12 12 11 12 12 11 11 11 11 12 12 13 14 15 16 14 15 18 16 16 15 13 12 12 12 13
3 3 3 3 3 3 3 3 3 4 3 4 4 4 4 4 4 4 3 4 4 4 5 9 10 11 10 11 11 12 12 11 10 10 10 11 10 11 12 13 13 14 15 14 14 15 16 14 12 12 11 11 11 11
3 3 3 3 3 3 3 3 3 4 3 3 3 3 3 3 3 3 3 3 4 4 5 7 8 9 9 10 11 12 12 11 10 10 10 11 11 11 11 12 12 14 14 14 14 16 15 13 12 13 11 10 9 8
3 3 3 2 2 3 3 3 3 3 3 3 3 3 3 3 3 3 4 4 4 4 4 7 9 9 9 10 11 11 11 11 10 10 10 11 11 10 10 12 14 14 15 15 15 14 13 12 11 11 9 9 8 7
3 3 3 3 2 2 3 3 3 3 3 3 3 3 3 3 3 3 4 2 3 4 4 6 9 9 9 10 10 9 10 9 10 10 10 10 11 11 11 11 14 16 14 14 16 13 13 12 11 9 8 7 8 7
3 2 3 3 2 2 3 3 3 3 3 3 3 2 3 3 3 3 4 3 2 2 4 6 9 9 9 10 10 9 10 9 9 10 10 10 10 10 11 12 12 13 14 13 15 13 11 10 8 7 7 7 6 6
3 3 3 2 2 2 3 3 3 3 3 2 2 4 3 4 4 3 3 3 2 3 5 7 8 9 9 10 9 9 10 10 10 10 10 10 11 10 11 12 13 14 14 14 10 10 9 9 8 7 7 7 6 5
3 3 3 3 2 2 2 3 3 2 2 3 3 5 4 3 3 3 3 4 3 4 4 7 10 10 10 10 9 10 10 10 9 11 10 9 10 12 13 13 11 11 13 9 9 6 5 5 6 7 7 8 7 6
3 3 3 3 2 2 2 3 3 2 2 3 3 3 3 3 4 4 4 4 5 6 7 8 10 10 9 10 11 9 9 8 10 9 10 9 11 12 10 10 9 9 9 10 10 11 8 8 7 8 8 8 7 5
3 3 3 3 2 2 3 3 2 1 2 2 1 1 2 3 3 4 5 5 6 8 8 9 9 9 9 8 9 9 8 8 10 8 9 10 9 8 8 8 8 7 8 9 10 10 9 9 8 8 7 7 6 4
3 3 2 3 2 2 3 3 2 2 2 2 3 1 3 4 5 6 7 7 7 5 5 5 8 9 7 7 8 9 8 9 7 8 10 7 6 7 6 6 6 7 8 8 8 9 10 8 8 8 6 6 4 3
2 2 3 2 2 2 2 2 2 2 2 2 2 2 4 6 6 5 5 5 4 4 5 5 7 7 8 7 8 9 9 8 9 9 8 6 5 5 6 5 5 6 6 6 6 6 6 6 5 6 5 4 3 3
2 2 3 2 2 2 2 2 2 2 3 2 2 4 4 4 4 3 3 3 3 3 4 6 5 7 6 7 8 7 8 9 10 7 6 4 3 3 4 4 4 5 5 5 4 4 4 4 4 3 3 3 3 2
2 2 2 2 2 2 2 2 2 2 3 1 2 3 3 3 4 2 2 3 3 4 3 4 6 7 8 7 8 9 9 9 6 4 2 2 3 2 3 3 3 3 4 5 5 4 4 3 3 2 3 2 2 2
2 2 2 2 2 2 2 1 1 1 2 2 2 3 3 3 4 1 4 4 4 4 5 5 7 9 5 7 7 9 9 5 3 1 0 1 1 2 1 1 2 2 3 4 4 4 4 3 2 2 1 1 1 0
2 2 2 1 1 1 1 1 0 1 1 2 2 3 3 4 3 3 3 3 2 3 3 4 3 6 7 8 8 4 3 1 1 -0 -1 0 1 1 1 -1 -0 1 1 2 2 2 2 2 1 0 -1 -1 -1 -1
2 2 2 1 1 2 0 -0 -0 0 0 1 2 2 2 2 1 1 1 2 2 3 2 3 4 5 6 3 3 2 1 1 1 1 -0 1 2 1 0 0 0 0 0 1 0 0 1 2 1 -1 -2 -1 -2 -2
2 2 1 1 1 1 -0 -1 -2 -1 -0 -0 1 0 -1 -1 -1 -2 -2 -1 1 -1 2 2 4 3 3 1 0 -0 -1 -1 -1 -0 0 0 1 1 0 0 -1 -0 0 0 1 1 -0 -1 -1 -1 -1 -1 -2 -2
1 1 0 0 -1 0 -0 -1 -1 -1 -1 -1 -0 -1 -3 -4 -4 -2 -1 1 1 -3 -2 -0 0 -0 -1 -1 -1 -2 -3 -2 -2 -2 -1 -1 -0 0 1 1 1 -0 -1 -1 -2 -1 -0 -2 -1 -1 -0 -1 -2 -2
-1 0 -1 -2 -1 -2 -2 -2 -2 -2 -2 -2 -3 -3 -5 -5 -5 -3 -4 -1 -0 -2 -2 -2 -3 -3 -2 -3 -4 -2 -2 -3 -3 -2 -1 -1 -1 -1 -0 -0 -0 -5 -2 -1 -0 -1 -1 -1 -1 -1 -2 -2 -3 -3
-1 -1 -2 -2 -1 -1 -2 -3 -2 -2 -1 -3 -4 -5 -6 -6 -3 -4 -3 -5 -4 -3 -2 -4 -4 -3 -5 -3 -3 -3 -3 -3 -5 -4 -3 -3 -3 -2 -1 -1 -1 -2 -4 -1 0 0 -1 -1 -1 -2 -3 -3 -4 -4
-1 -1 -1 -1 -1 -1 -3 -3 -3 -2 -3 -3 -3 -4 -5 -6 -5 -3 -4 -4 -3 -4 -5 -7 -6 -6 -5 -5 -7 -6 -2 -3 -4 -4 -4 -4 -5 -4 -3 -3 -2 -1 -1 -1 -1 -1 -1 -2 -2 -3 -3 -3 -4 -5
0 -2 -2 -3 -4 -4 -3 -3 -3 -3 -3 -3 -3 -4 -5 -7 -5 -5 -4 -5 -5 -5 -5 -7 -7 -7 -6 -7 -7 -3 -3 -4 -6 -7 -5 -5 -5 -6 -5 -4 -3 -2 -2 -2 -2 -2 -2 -3 -3 -4 -4 -4 -5 -5
1 -3 -2 -2 -4 -3 -2 -2 -3 -3 -3 -5 -5 -7 -8 -6 -6 -5 -4 -5 -5 -5 -4 -4 -5 -6 -6 -5 -6 -7 -4 -4 -5 -8 -7 -7 -7 -7 -6 -5 -4 -4 -3 -3 -3 -4 -4 -4 -4 -4 -4 -4 -4 -6
0 -2 -3 -1 -1 -2 -2 -3 -2 -3 -4 -5 -6 -7 -7 -6 -6 -5 -5 -7 -6 -3 -2 -2 -3 -6 -8 -6 -4 -5 -6 -7 -7 -8 -7 -7 -8 -8 -8 -8 -7 -6 -4 -3 -3 -4 -5 -5 -5 -4 -4 -4 -5 -6
-0 -2 -3 -3 -3 -4 -3 -4 -4 -4 -4 -4 -4 -6 -6 -4 -4 -6 -7 -4 -3 -4 -4 -5 -5 -5 -6 -7 -8 -9 -9 -9 -9 -9 -10 -10 -9 -8 -8 -8 -8 -7 -6 -5 -3 -4 -4 -5 -5 -5 -5 -6 -8 -8
-3 -2 -3 -4 -4 -4 -4 -3 -4 -4 -4 -6 -5 -5 -5 -6 -8 -9 -6 -5 -5 -6 -8 -9 -7 -7 -8 -9 -9 -9 -9 -10 -11 -11 -11 -10 -9 -8 -6 -5 -6 -6 -5 -4 -4 -4 -4 -5 -6 -6 -6 -7 -8 -8
-3 -2 -3 -4 -4 -3 -5 -8 -8 -11 -8 -7 -7 -8 -8 -8 -6 -5 -6 -7 -9 -11 -9 -9 -9 -10 -12 -12 -12 -11 -10 -10 -10 -10 -9 -9 -9 -7 -6 -6 -6 -6 -4 -4 -4 -4 -5 -5 -6 -7 -8 -9 -9 -9
-3 -3 -4 -4 -5 -9 -13 -13 -12 -7 -10 -11 -12 -11 -9 -11 -9 -7 -8 -9 -9 -10 -10 -11 -10 -10 -11 -12 -12 -12 -11 -10 -9 -9 -9 -9 -9 -9 -8 -8 -7 -6 -5 -5 -5 -5 -5 -7 -8 -9 -9 -9 -9 -10
-4 -3 -4 -5 -9 -13 -14 -12 -11 -10 -10 -12 -12 -15 -14 -12 -11 -11 -9 -10 -11 -11 -10 -9 -11 -10 -9 -10 -10 -10 -10 -9 -9 -9 -9 -10 -9 -9 -8 -8 -7 -5 -5 -5 -6 -7 -8 -9 -9 -9 -10 -11 -11 -11
-8 -8 -7 -8 -11 -11 -12 -11 -10 -11 -12 -13 -13 -14 -14 -12 -9 -11 -9 -10 -9 -9 -9 -9 -9 -9 -9 -9 -9 -9 -9 -8 -8 -8 -7 -7 -7 -7 -7 -7 -6 -6 -6 -7 -9 -9 -9 -9 -10 -11 -11 -11 -11 -10
Height
799 800 800 798 796 794 791 789 787 784 781 778 776 776 773 769 766 763 760 759 759 754 740 731 727 722 718 719 727 729 733 733 734 732 738 735 734 723 721 713 722 727 731 733 737 738 735 690 693 698 694 689 688 689
797 797 796 795 793 790 788 786 784 781 779 776 773 773 772 769 765 762 760 758 758 756 743 734 729 725 727 724 721 724 725 725 728 734 739 736 734 731 720 718 703 713 709 710 719 712 691 685 686 683 687 691 690 690
794 793 793 792 789 787 785 783 781 778 775 773 770 768 767 765 763 762 759 757 756 752 741 733 722 720 722 722 721 722 726 725 727 731 735 736 735 730 726 715 709 701 697 705 701 685 687 684 684 688 690 691 690 690
790 789 789 788 786 784 782 780 778 774 771 769 766 764 763 761 758 757 756 755 756 755 745 723 719 719 719 720 720 721 722 725 728 731 735 734 736 730 721 716 711 704 700 701 699 690 683 688 690 691 692 692 692 692
786 786 786 784 782 780 778 776 774 771 768 764 761 760 757 756 753 751 749 747 750 753 738 727 720 717 718 719 720 722 723 724 728 732 733 731 731 730 722 715 706 699 698 700 697 685 685 691 691 691 694 695 697 698
783 783 782 780 777 776 774 773 770 767 763 760 756 753 751 748 747 747 742 740 742 747 746 726 716 715 717 718 719 720 722 723 727 729 728 725 723 728 723 706 693 688 685 683 686 684 688 691 692 693 697 698 701 703
778 779 779 777 773 772 770 769 766 763 758 754 751 746 742 740 740 742 740 741 741 744 742 727 713 714 716 718 721 723 724 725 726 726 726 723 721 722 715 706 687 680 680 682 679 683 688 690 693 696 698 702 704 706
773 775 776 773 770 769 767 765 763 759 754 749 745 740 737 734 736 739 739 741 742 742 737 725 711 713 715 715 718 721 722 723 724 722 721 721 718 718 706 691 689 684 682 682 681 684 688 690 694 699 702 704 708 711
768 770 771 770 768 765 764 762 758 755 751 745 739 737 736 735 736 739 740 740 740 742 732 719 714 714 714 712 715 720 718 718 719 718 717 718 711 709 693 690 686 682 681 681 686 688 691 693 695 699 702 705 709 713
764 766 766 765 764 762 760 759 755 751 746 741 738 736 735 738 738 738 740 738 738 735 731 719 707 710 712 711 715 714 716 716 720 713 715 716 707 694 690 688 687 686 683 687 691 698 697 698 697 698 701 703 707 711
760 762 762 762 761 760 759 757 753 749 745 744 741 739 738 738 736 737 734 732 730 725 720 713 707 709 712 712 709 715 719 723 718 722 716 714 700 695 698 695 693 689 686 683 682 683 686 687 692 696 699 702 707 712
756 757 758 758 757 757 756 754 751 750 749 749 746 741 738 738 737 734 726 728 724 713 714 710 712 711 714 715 714 718 722 725 718 721 720 710 707 706 702 698 695 691 686 681 680 682 683 685 689 694 699 703 708 712
751 753 754 754 754 754 753 752 749 748 747 746 745 743 738 735 729 722 718 718 717 724 725 722 717 714 718 718 721 720 722 720 723 721 710 718 715 710 706 701 696 690 685 681 682 683 683 685 689 693 698 704 710 714
746 749 750 750 750 751 749 749 747 746 747 746 746 741 733 724 724 725 725 727 730 728 726 723 720 717 718 721 718 716 719 722 717 718 719 719 719 714 709 705 699 693 689 687 687 687 688 688 691 696 699 705 708 715
742 744 746 746 747 747 746 746 745 746 747 745 746 734 729 729 730 730 731 731 731 729 727 723 722 718 722 722 719 723 721 716 711 719 720 723 721 718 713 708 703 698 695 694 693 692 693 694 696 699 701 705 711 715
738 741 741 744 743 743 744 743 744 745 745 744 742 736 732 732 730 734 733 730 730 729 729 728 722 719 716 718 720 714 712 710 720 727 729 724 721 719 716 711 707 702 698 697 696 696 696 697 698 702 706 708 712 716
734 736 738 740 741 742 742 742 743 743 742 740 736 733 730 730 729 733 730 728 728 729 724 726 717 710 722 715 716 709 707 719 729 731 729 725 722 719 716 713 709 705 701 698 698 699 699 701 702 704 708 711 714 717
730 731 735 737 739 740 740 741 742 741 740 736 734 730 730 728 730 731 730 731 731 729 730 727 732 721 712 706 705 722 726 731 729 729 728 724 720 718 716 714 711 707 704 702 700 700 702 703 704 708 712 714 718 722
724 728 732 734 737 738 739 741 741 739 737 735 732 732 732 732 732 732 733 733 732 730 731 730 726 718 715 724 725 728 730 730 729 727 725 720 718 718 716 714 711 708 706 704 703 702 703 705 706 709 712 717 719 723
721 725 729 732 736 736 738 740 741 739 737 735 734 735 736 735 735 737 738 736 734 736 732 729 719 720 722 727 729 730 731 729 728 724 721 719 718 716 715 713 710 708 707 705 703 703 703 706 707 710 713 716 718 722
718 723 727 730 734 735 737 738 738 738 736 736 734 736 738 737 738 737 736 734 733 738 734 722 720 722 724 726 728 728 728 727 727 727 724 719 717 716 713 710 709 707 707 706 705 704 705 705 707 709 712 715 719 723
716 721 725 730 734 736 737 737 737 738 739 736 738 738 743 742 740 737 738 736 729 724 719 718 719 721 724 725 724 725 724 724 723 721 720 718 715 713 711 710 707 705 704 703 702 702 702 703 706 709 711 714 717 722
714 720 725 729 733 734 735 736 736 736 735 737 741 742 743 741 734 738 736 734 724 714 713 716 718 720 721 721 721 721 721 721 720 719 717 716 715 713 710 708 705 703 701 699 700 700 700 701 703 707 710 714 717 722
712 718 722 725 727 730 736 736 735 734 736 736 735 737 737 740 737 735 735 723 713 711 713 716 717 719 719 718 719 716 716 717 716 714 714 713 711 708 707 705 702 699 698 696 696 697 698 700 700 704 709 712 716 719
711 721 722 726 730 732 731 732 733 733 730 730 733 734 737 739 739 737 729 718 712 711 711 712 715 716 717 715 712 711 712 713 713 712 708 709 707 705 702 700 696 694 693 693 693 694 695 697 698 698 706 710 713 717
704 713 715 713 722 722 718 722 727 727 725 734 734 738 740 737 741 733 719 709 706 704 705 706 708 711 711 709 709 709 709 709 709 707 702 703 702 701 698 695 692 689 689 689 689 690 691 693 695 696 699 707 712 715
695 705 707 707 708 711 714 716 717 722 726 728 731 739 740 742 736 715 701 698 699 697 698 699 701 702 703 703 704 704 705 704 703 700 698 697 695 695 694 691 687 684 686 684 684 684 686 688 691 693 695 701 708 711
685 692 701 706 708 712 712 716 717 717 717 714 719 730 728 721 711 700 695 694 695 696 697 698 699 700 700 699 700 699 698 697 695 694 691 687 685 682 680 678 677 677 678 677 677 678 679 682 686 690 693 696 703 710
687 688 693 704 709 710 708 705 705 703 701 708 713 713 707 699 694 693 692 692 694 695 696 696 695 696 695 695 694 693 692 690 691 688 686 681 677 673 673 670 669 669 669 669 670 671 673 677 682 686 691 697 702 707
684 684 691 698 700 698 700 702 704 706 703 704 704 703 701 696 690 689 689 690 691 691 692 692 692 692 692 692 688 686 685 683 681 680 676 673 670 668 667 666 665 663 662 663 665 668 672 677 682 687 690 696 702 708
678 683 689 692 696 704 707 706 706 703 706 708 708 709 704 700 689 684 684 685 686 687 688 688 688 688 688 686 685 681 676 673 671 670 669 667 665 663 662 661 660 659 658 659 662 665 670 676 680 686 689 696 703 709
679 680 686 692 704 709 708 708 707 707 709 710 709 710 707 706 702 684 681 682 683 684 684 684 685 683 683 682 679 676 672 668 664 662 660 658 657 656 655 655 655 655 656 659 661 665 670 676 682 687 691 698 706 712
688 691 692 696 706 708 709 709 709 711 712 712 709 708 708 706 697 683 679 679 680 681 681 681 681 681 679 677 675 671 667 662 658 655 653 651 650 650 650 652 652 653 656 659 663 668 673 678 684 690 694 700 710 716
Wind_Speed
14 15 17 18 18 19 17 17 18 18 17 17 17 17 17 17 16 16 10 8 5 3 7 6 8 5 2 2 3 3 3 1 2 1 1 1 2 3 3 3 5 7 6 3 3 4 7 1 1 2 3 3 4 4
15 15 17 18 17 18 17 17 18 18 17 17 17 18 17 15 15 13 6 12 13 3 5 8 20 22 11 5 1 3 1 3 2 2 2 1 2 3 5 3 0 3 5 4 6 6 6 4 7 1 3 2 5 2
14 16 17 18 18 18 18 18 19 18 17 18 18 18 17 15 13 11 9 10 10 2 5 4 4 10 9 8 2 2 1 3 3 2 2 1 3 2 2 4 4 4 5 2 2 4 5 4 5 5 4 3 2 2
16 16 17 18 18 19 20 17 19 20 18 18 18 19 19 17 13 11 12 11 9 3 3 3 3 2 4 5 2 2 5 5 4 2 2 2 2 3 3 4 3 2 2 4 5 9 3 5 5 4 4 3 5 5
18 17 17 18 18 19 20 20 18 21 20 19 20 21 20 19 15 13 18 17 16 4 3 4 11 4 3 3 6 5 5 4 2 2 2 3 2 2 3 4 7 4 5 4 4 2 2 2 4 2 5 5 6 8
17 18 17 18 18 18 20 23 19 21 21 22 23 23 23 21 14 6 3 1 16 18 3 3 2 3 3 2 4 4 3 1 2 2 2 2 3 3 3 4 6 10 9 8 4 4 3 5 5 5 6 6 7 7
17 17 18 17 18 18 19 22 21 23 22 23 25 25 22 14 9 5 1 3 5 17 3 3 2 3 6 4 2 2 2 1 2 1 2 2 3 5 3 7 9 12 8 8 0 5 2 4 3 7 8 8 11 9
16 16 18 18 18 19 20 22 22 24 24 25 26 21 9 3 4 6 16 12 5 4 3 2 1 3 4 3 3 3 3 2 3 2 1 2 2 3 5 10 8 11 13 8 4 4 3 7 8 7 7 8 8 8
16 16 17 18 19 19 19 21 22 24 26 28 19 1 2 2 1 2 5 5 5 4 3 2 3 2 2 2 2 1 1 2 3 3 2 2 2 4 6 7 7 5 3 2 5 6 6 6 8 8 8 8 10 8
17 17 17 17 19 20 18 20 21 23 29 12 5 1 2 3 8 2 3 2 2 2 3 3 2 2 2 2 2 3 2 0 0 0 1 2 3 10 10 9 7 7 2 7 3 2 1 2 8 9 8 7 9 10
17 17 16 16 17 18 18 18 19 22 10 6 3 1 4 7 1 1 2 2 2 2 3 3 2 3 1 1 1 2 1 1 1 1 1 2 2 3 7 7 7 7 7 6 6 5 8 8 9 9 8 10 10 12
18 18 15 15 16 15 17 16 15 13 8 8 10 6 2 1 1 2 3 1 3 1 2 1 1 2 2 2 1 1 2 1 2 2 1 2 1 7 10 11 10 8 8 7 6 4 6 7 7 8 7 10 13 18
20 18 16 15 14 14 15 17 13 13 8 3 3 2 1 2 3 3 3 1 1 3 3 3 1 1 1 0 2 1 2 3 1 1 2 3 4 10 11 10 10 8 7 5 5 3 3 7 13 11 11 16 19 19
20 18 17 16 13 13 10 12 14 5 3 1 2 3 3 3 2 1 2 2 2 2 3 2 0 1 1 2 1 2 1 1 2 2 4 2 7 10 9 9 9 9 8 6 5 5 4 7 9 15 17 20 22 19
19 18 16 17 14 12 8 10 8 1 2 2 2 3 4 2 0 1 1 1 1 2 2 1 1 0 1 2 1 2 1 3 4 3 2 5 7 8 9 10 10 9 6 5 3 3 5 7 9 10 18 21 20 22
17 13 16 14 11 9 7 7 2 2 2 2 3 3 1 1 3 1 1 1 2 1 1 1 1 2 2 2 2 5 3 5 2 1 2 4 8 9 9 8 8 7 6 4 3 2 5 7 9 11 17 18 20 22
16 6 7 4 6 4 5 2 2 2 3 3 3 3 1 1 1 1 1 1 1 1 0 1 3 3 1 3 3 4 4 2 3 3 2 5 6 9 7 7 6 7 5 5 3 1 4 9 15 15 10 14 21 21
10 11 11 8 6 3 2 3 2 2 4 4 2 3 4 1 2 2 1 3 1 1 1 1 2 2 3 3 3 2 3 2 2 1 3 6 6 6 8 7 10 10 7 4 2 5 9 10 7 6 14 20 21 22
18 17 10 10 6 3 2 2 0 2 3 2 1 2 3 1 2 2 2 2 2 0 0 1 3 3 1 2 2 1 1 3 4 5 5 8 4 5 8 12 13 7 4 1 2 4 7 9 9 15 18 17 15 18
19 13 10 12 8 3 1 1 1 2 2 1 2 2 2 0 2 2 2 1 1 1 2 3 4 2 2 2 1 1 2 3 4 6 5 2 10 13 10 11 8 10 7 2 3 5 9 11 14 18 17 16 19 18
16 10 15 14 2 2 1 1 2 1 1 1 1 2 2 1 1 1 2 2 3 3 3 3 2 2 3 2 3 5 4 3 2 2 6 8 10 13 13 14 10 8 5 4 3 5 9 9 15 18 18 17 17 17
8 20 5 4 2 1 1 1 1 1 1 1 0 1 1 1 2 2 1 3 4 3 3 2 2 3 3 3 2 4 7 10 11 11 12 12 7 7 8 12 10 3 8 10 11 8 11 14 17 18 18 19 22 23
18 8 4 3 2 2 1 2 3 3 3 2 1 1 2 1 1 2 2 3 3 3 2 2 3 4 3 4 3 6 7 9 3 7 9 10 13 14 14 14 13 9 4 12 15 14 15 18 19 19 21 21 23 23
10 3 4 4 3 3 3 3 2 2 0 2 2 2 2 3 2 2 3 3 3 2 2 4 4 1 2 2 2 3 4 6 10 13 12 12 5 10 14 16 17 18 17 16 15 17 19 18 21 21 21 22 22 22
5 3 4 4 0 3 4 4 3 3 3 3 3 2 2 1 1 3 3 3 2 3 3 3 2 3 3 2 2 7 8 8 7 6 12 11 15 15 14 16 19 19 15 12 14 17 18 20 20 23 22 22 23 24
5 6 9 8 4 5 6 5 5 6 3 3 4 1 1 2 0 6 3 3 3 4 5 7 7 4 4 7 4 2 8 8 10 8 18 17 17 12 8 7 8 11 12 17 15 15 17 19 20 23 23 24 26 26
6 5 4 1 3 3 2 1 2 2 5 5 3 3 3 2 6 4 2 2 3 4 8 14 16 8 3 4 11 16 18 18 18 20 22 21 22 23 22 16 13 20 17 17 20 20 21 21 22 24 25 26 27 28
3 4 7 6 2 1 4 3 5 6 4 3 5 4 7 8 5 3 3 3 5 5 7 8 9 11 14 18 19 19 21 21 21 22 24 26 27 26 27 29 29 26 25 24 22 23 25 24 25 26 27 28 26 27
3 4 5 4 3 3 5 7 5 3 2 4 5 4 4 3 2 2 3 5 7 6 5 7 11 11 12 15 20 20 21 19 7 10 12 8 6 13 18 21 19 20 22 23 21 24 28 29 28 27 28 28 29 31
4 4 3 4 6 6 3 2 1 1 0 1 1 2 2 3 4 7 9 10 8 8 9 9 8 9 10 11 11 15 18 19 21 17 10 9 8 14 13 14 16 17 18 21 19 21 23 25 27 28 31 30 30 30
4 2 3 3 3 1 1 2 2 0 2 1 1 2 3 3 7 7 11 11 10 8 6 5 7 9 13 14 10 7 9 12 12 17 20 23 23 23 23 22 21 17 18 21 25 24 25 25 26 26 28 28 29 29
3 3 4 4 1 1 1 1 1 0 0 1 2 1 3 2 3 3 5 9 8 5 6 6 8 9 11 14 16 19 20 25 26 24 22 22 23 24 23 19 16 16 20 21 22 29 32 28 26 27 31 31 31 31
2 2 2 3 2 1 1 2 1 2 1 2 2 1 2 2 6 3 3 9 8 5 6 6 6 8 9 11 14 15 15 17 17 16 17 17 18 15 13 13 16 22 26 28 28 30 30 30 29 30 33 35 32 33
Wind_Direction
320 318 313 314 312 317 323 324 320 322 325 329 334 333 340 350 356 4 321 3 349 301 287 293 319 323 13 134 174 124 143 210 166 130 120 173 261 284 293 156 171 173 183 189 168 223 264 218 212 230 259 314 339 332
302 305 306 308 309 312 321 324 319 319 321 320 325 323 324 332 343 351 328 333 322 234 281 298 282 280 260 315 345 153 25 133 97 115 197 336 255 280 324 281 38 217 202 170 189 214 245 239 211 232 85 299 301 98
294 300 302 306 309 309 316 323 317 315 318 318 320 315 318 317 325 327 312 316 323 267 276 250 232 254 220 233 274 169 196 134 115 44 107 261 261 335 260 255 315 238 246 237 348 287 252 16 37 67 55 345 6 92
289 299 303 303 309 308 315 312 317 313 312 314 316 313 310 306 307 308 300 295 274 265 270 271 299 235 215 215 182 109 125 85 103 120 158 217 243 210 262 298 264 261 24 226 260 283 304 70 78 46 60 52 87 90
285 294 298 304 309 306 307 313 316 311 311 312 312 308 305 303 303 297 289 271 241 222 307 291 315 217 205 183 191 175 183 133 134 157 182 219 228 253 248 264 256 215 208 197 230 167 163 98 93 38 106 97 91 97
285 288 295 301 309 305 309 315 311 311 310 313 310 309 303 293 284 308 296 180 220 208 271 268 345 138 146 134 176 180 206 177 143 174 211 222 225 165 261 265 228 238 230 235 265 82 84 103 83 87 108 108 98 101
283 291 292 303 313 309 308 314 317 312 313 313 313 312 308 295 237 189 283 35 69 167 246 264 204 132 145 133 118 126 117 161 175 208 220 222 232 185 243 258 252 287 319 340 51 102 195 169 141 113 105 100 107 100
269 285 292 305 313 311 309 316 317 314 316 315 313 313 319 114 129 220 253 268 299 255 257 265 79 137 199 150 148 168 166 163 193 239 195 214 215 203 257 252 264 260 274 260 195 127 99 113 108 108 112 120 110 112
262 277 290 302 312 313 310 317 320 320 318 316 311 221 62 27 119 69 154 185 251 266 291 258 165 162 166 146 98 150 202 194 161 217 223 133 201 230 251 277 290 356 315 338 79 111 142 146 136 141 149 139 131 131
257 269 286 301 308 312 313 319 323 325 323 328 339 211 51 40 312 245 155 205 200 219 223 262 271 110 206 140 176 157 195 327 292 27 85 234 256 272 284 294 323 327 192 134 112 316 51 148 161 171 173 150 144 141
250 266 281 298 305 310 317 321 326 334 343 348 340 34 326 313 233 195 238 225 192 238 213 242 330 117 44 174 135 30 147 67 250 241 262 276 274 30 355 344 331 317 313 230 206 215 184 168 171 168 166 149 141 141
244 259 273 292 305 305 316 316 330 340 314 307 293 294 325 320 242 236 206 196 218 209 11 354 53 41 92 349 78 313 117 56 252 350 255 253 317 342 348 334 328 317 302 281 197 189 178 164 165 156 147 142 141 130
242 253 271 287 300 297 312 318 326 324 318 284 264 326 230 161 258 271 165 185 132 1 345 337 58 26 123 307 72 119 139 223 73 230 247 228 359 345 338 333 330 333 336 41 39 30 152 139 151 148 136 137 131 134
240 251 265 282 292 294 290 312 326 330 298 281 271 257 208 201 238 27 9 20 20 304 334 312 279 97 27 77 161 163 210 60 257 250 242 354 342 336 337 339 346 346 355 24 49 40 98 122 123 134 136 140 141 146
237 248 262 277 285 292 281 310 321 240 264 259 241 248 217 67 359 92 124 313 322 304 317 277 5 111 33 83 173 102 163 237 226 226 344 332 332 334 335 340 348 350 351 357 13 92 102 113 129 128 143 150 149 143
233 248 263 282 273 236 282 317 217 215 237 242 238 250 195 271 199 260 196 194 215 322 303 297 232 166 204 174 170 208 205 223 207 7 291 318 329 330 331 334 333 332 344 5 8 114 140 129 134 129 134 138 143 146
210 221 194 206 193 253 302 188 189 219 241 234 237 245 309 27 166 84 354 41 42 37 345 310 216 195 76 166 217 206 221 69 351 306 291 315 319 328 327 324 332 336 337 5 31 78 130 140 137 136 134 137 139 138
206 206 214 205 214 275 165 178 227 223 242 238 252 231 218 204 221 301 101 40 31 70 50 23 317 238 222 222 215 64 33 323 284 298 283 309 308 336 338 328 327 336 340 1 67 111 136 143 135 123 126 130 123 127
202 199 209 194 198 197 163 179 176 251 220 325 285 243 232 250 356 11 346 318 319 58 151 215 240 230 233 58 67 37 353 326 312 315 299 296 344 341 334 341 332 328 344 350 179 164 174 175 157 143 144 146 139 142
199 210 193 190 189 155 156 167 198 275 229 211 218 221 240 92 43 31 346 308 241 177 201 211 222 159 129 129 163 246 258 298 305 309 303 326 337 330 328 320 309 319 304 251 196 160 139 133 154 159 159 155 151 155
155 181 154 176 144 105 52 152 225 272 333 247 81 230 258 49 113 174 203 170 204 216 238 228 166 124 121 167 239 257 262 271 285 282 298 307 320 316 312 311 298 308 273 247 200 197 183 176 172 167 164 160 156 152
135 164 114 116 121 96 253 135 323 87 236 41 208 208 262 223 183 187 134 200 230 247 211 150 147 134 171 197 200 267 287 303 299 281 289 297 306 314 310 309 306 261 260 250 226 209 195 179 172 166 154 147 147 143
138 118 103 120 124 167 218 159 196 187 213 197 110 282 258 233 130 104 239 225 238 225 127 118 143 168 188 248 240 275 272 257 274 277 288 295 292 290 297 297 297 276 268 258 236 213 185 174 167 159 151 149 145 143
110 104 140 165 167 186 135 193 216 169 131 217 195 246 222 190 152 207 252 240 226 120 138 178 165 195 251 228 242 226 226 260 274 281 276 276 281 286 288 290 290 283 273 266 237 203 189 179 164 161 161 157 157 152
119 189 157 167 273 144 203 175 183 196 232 171 191 249 209 147 188 230 232 260 195 200 194 164 177 200 201 248 265 251 268 247 243 271 278 269 277 285 284 284 283 273 268 247 203 196 187 177 171 162 166 167 160 155
192 185 177 179 171 186 189 168 193 197 164 179 218 148 122 128 134 243 234 220 205 189 185 193 198 196 231 217 243 252 264 256 256 269 280 272 261 259 273 285 291 293 264 243 213 197 190 185 177 168 165 170 166 152
187 182 184 241 160 132 125 52 70 157 185 188 181 161 120 177 238 246 253 229 189 212 205 209 201 200 214 251 266 274 278 276 260 260 276 274 271 268 265 261 262 264 278 256 235 209 195 188 183 176 165 163 165 160
181 151 159 172 149 186 152 171 183 200 198 186 131 179 188 199 231 233 196 158 192 193 194 206 229 255 270 277 282 283 283 282 278 276 279 278 273 272 269 260 257 261 259 254 249 223 200 187 183 177 167 158 154 159
152 142 116 128 133 195 211 192 210 210 152 149 171 212 229 229 230 192 194 196 200 214 245 271 281 288 282 285 288 286 282 276 254 261 262 269 282 271 280 269 267 267 259 241 234 213 198 185 176 171 161 153 151 150
157 164 115 158 173 211 209 158 162 263 325 118 317 315 297 273 246 236 228 222 212 219 243 255 262 279 270 273 281 283 288 273 247 244 260 263 256 275 287 292 298 285 251 227 202 182 175 168 161 152 145 141 141 140
125 109 109 142 203 69 63 347 304 156 45 356 343 191 255 301 306 261 242 241 235 229 233 269 287 278 263 268 267 286 297 298 278 270 267 266 270 274 279 281 277 275 220 191 171 164 164 150 144 145 140 138 141 139
146 159 139 154 211 292 7 49 74 156 254 263 254 38 329 360 276 270 200 182 179 205 232 246 252 277 307 304 305 302 285 286 287 290 288 281 276 271 272 266 266 219 182 163 156 147 143 141 143 142 134 132 135 136
87 71 69 101 90 136 226 107 37 314 299 272 272 188 232 215 243 270 235 217 224 230 245 266 291 307 320 332 326 317 315 316 310 296 286 274 268 262 245 233 195 174 162 150 143 144 141 139 138 136 133 130 132 137